contact:dominique.lefevre@mio.osupytheas.fr, maurice.libes@osupytheas.fr
Project:EMSO Ligure-ouest http://www.emso-fr.org/EMSO-France
Sensor Aquadopp, line 13 Serial AQD14315 
DOI : "https://doi.org/10.17882/74513; https://doi.org/10.17882/83244" 
Title:EMSO Ligure Ouest : Data ligne ALBATROSS capteur AQUADOPP - deploiement 2021
Id,Date,Profondeur,Latitude,Longitude,X_East,Y_North,Z_Up,Amplitude_X,Amplitude_Y,Amplitude_Z,Batterie,SoundSpeed,Heading,Pitch,Roll,Pressure,Temperature,Speed,Direction
, , m, degrees North, degrees East, m.s-1, m.s-1,m.s-1, 1, 1, 1, Volt, m.s-1, degree, degree, degree, dbar, degree_C, m.s-1, degree
09,2023-01-25T23:30:00,2000.0,42.79,6.0312,0.018,-0.035,-0.014,70.0,68.0,75.0,12.4,1504.7,92.8,-1.1,1.0,1992.414,13.29,0.039,152.8
09,2023-01-26T00:00:00,2000.0,42.79,6.0312,0.011,-0.025,-0.007,72.0,66.0,70.0,12.4,1504.7,95.1,-0.8,0.9,1992.379,13.29,0.027,156.3
09,2023-01-26T00:30:00,2000.0,42.79,6.0312,0.017,-0.021,-0.001,72.0,72.0,73.0,12.4,1504.7,91.9,-0.8,1.0,1992.393,13.29,0.027,141.0
09,2023-01-26T01:00:00,2000.0,42.79,6.0312,0.013,-0.018,0.005,69.0,68.0,72.0,12.4,1504.7,94.7,-0.7,1.0,1992.434,13.29,0.022,144.2
09,2023-01-26T02:00:00,2000.0,42.79,6.0312,0.033,-0.014,-0.01,72.0,69.0,70.0,12.4,1504.7,86.4,-0.8,1.0,1992.342,13.29,0.035,113.0
09,2023-01-26T02:30:00,2000.0,42.79,6.0312,0.019,0.007,-0.009,73.0,67.0,71.0,12.4,1504.7,101.0,-0.8,1.0,1992.336,13.28,0.02,69.8
09,2023-01-26T03:00:00,2000.0,42.79,6.0312,0.051,-0.003,0.01,75.0,67.0,71.0,12.4,1504.7,84.5,-0.7,0.9,1992.312,13.28,0.051,93.4
09,2023-01-26T03:30:00,2000.0,42.79,6.0312,0.018,-0.006,-0.005,73.0,68.0,74.0,12.4,1504.7,90.8,-0.7,1.0,1992.286,13.28,0.018,108.4
09,2023-01-26T04:00:00,2000.0,42.79,6.0312,0.04,-0.013,0.008,71.0,67.0,71.0,12.4,1504.7,85.1,-0.7,1.0,1992.33,13.28,0.042,108.0
09,2023-01-26T04:30:00,2000.0,42.79,6.0312,0.039,0.007,-0.026,74.0,71.0,72.0,12.4,1504.7,89.0,-0.7,0.9,1992.3,13.28,0.039,79.8
09,2023-01-26T05:00:00,2000.0,42.79,6.0312,0.046,-0.022,0.005,73.0,71.0,73.0,12.4,1504.7,98.3,-0.6,1.0,1992.24,13.29,0.05,115.6
09,2023-01-26T05:30:00,2000.0,42.79,6.0312,0.011,-0.015,-0.014,74.0,70.0,71.0,12.4,1504.7,98.5,-0.7,0.9,1992.343,13.29,0.018,143.7
09,2023-01-26T06:00:00,2000.0,42.79,6.0312,0.008,0.002,-0.044,72.0,70.0,73.0,12.4,1504.7,92.3,-0.6,1.0,1992.272,13.29,0.008,76.0
09,2023-01-26T06:30:00,2000.0,42.79,6.0312,0.038,-0.008,0.005,75.0,68.0,72.0,12.4,1504.7,77.4,-0.8,0.9,1992.312,13.29,0.038,101.9
09,2023-01-26T07:00:00,2000.0,42.79,6.0312,0.046,0.02,-0.004,70.0,71.0,72.0,12.4,1504.7,61.2,-0.5,0.9,1992.338,13.29,0.05,66.5
09,2023-01-26T07:30:00,2000.0,42.79,6.0312,0.053,0.019,0.0,71.0,68.0,72.0,12.4,1504.7,70.8,-0.8,1.0,1992.428,13.29,0.056,70.3
09,2023-01-26T08:00:00,2000.0,42.79,6.0312,0.031,0.011,0.018,71.0,69.0,71.0,12.4,1504.7,78.8,-0.7,1.0,1992.377,13.28,0.032,70.5
09,2023-01-26T08:30:00,2000.0,42.79,6.0312,0.051,0.016,0.025,70.0,64.0,68.0,12.4,1504.7,73.5,-0.7,1.0,1992.454,13.28,0.053,72.6
09,2023-01-26T09:00:00,2000.0,42.79,6.0312,0.042,0.003,0.014,66.0,63.0,66.0,12.4,1504.7,77.1,-0.9,0.9,1992.529,13.28,0.042,85.9
09,2023-01-26T09:30:00,2000.0,42.79,6.0312,0.057,-0.005,0.01,66.0,62.0,63.0,12.4,1504.7,83.5,-0.8,1.0,1992.526,13.28,0.057,95.0
09,2023-01-26T10:00:00,2000.0,42.79,6.0312,0.027,-0.009,-0.002,68.0,63.0,64.0,12.4,1504.7,80.4,-0.8,1.0,1992.534,13.28,0.028,108.4
09,2023-01-26T10:30:00,2000.0,42.79,6.0312,0.025,0.004,0.011,66.0,63.0,64.0,12.4,1504.7,77.6,-0.9,0.9,1992.566,13.28,0.025,80.9
09,2023-01-26T11:00:00,2000.0,42.79,6.0312,0.047,-0.023,-0.013,65.0,58.0,65.0,12.4,1504.7,86.0,-0.9,1.0,1992.577,13.28,0.052,116.1
09,2023-01-26T11:30:00,2000.0,42.79,6.0312,0.035,-0.013,-0.006,64.0,64.0,64.0,12.4,1504.7,97.4,-0.8,1.0,1992.519,13.28,0.037,110.4
09,2023-01-26T12:30:00,2000.0,42.79,6.0312,0.043,-0.003,-0.011,67.0,62.0,67.0,12.4,1504.7,68.8,-0.6,1.0,1992.537,13.28,0.043,94.0
09,2023-01-26T13:00:00,2000.0,42.79,6.0312,0.047,-0.014,-0.017,67.0,65.0,67.0,12.4,1504.7,68.8,-0.5,1.0,1992.475,13.28,0.049,106.6
09,2023-01-26T13:30:00,2000.0,42.79,6.0312,0.021,-0.012,0.004,67.0,64.0,67.0,12.4,1504.7,66.8,-0.8,1.0,1992.466,13.28,0.024,119.7
09,2023-01-26T14:00:00,2000.0,42.79,6.0312,0.042,-0.001,-0.005,68.0,67.0,67.0,12.4,1504.7,67.0,-0.6,1.0,1992.452,13.28,0.042,91.4
09,2023-01-26T15:00:00,2000.0,42.79,6.0312,0.008,-0.023,0.033,69.0,63.0,64.0,12.4,1504.7,64.5,-0.7,1.0,1992.352,13.28,0.024,160.8
09,2023-01-26T15:30:00,2000.0,42.79,6.0312,0.029,-0.007,-0.011,66.0,61.0,66.0,12.4,1504.7,90.4,-0.8,1.0,1992.371,13.28,0.029,103.6
09,2023-01-26T16:00:00,2000.0,42.79,6.0312,0.034,0.012,-0.011,66.0,65.0,68.0,12.4,1504.7,56.2,-0.8,1.0,1992.328,13.28,0.036,70.6
09,2023-01-26T16:30:00,2000.0,42.79,6.0312,0.026,-0.004,-0.024,66.0,65.0,67.0,12.4,1504.7,86.4,-0.7,0.9,1992.351,13.28,0.026,98.7
09,2023-01-26T17:00:00,2000.0,42.79,6.0312,0.001,0.008,-0.001,66.0,64.0,66.0,12.4,1504.7,67.8,-0.7,1.0,1992.361,13.28,0.008,7.1
09,2023-01-26T17:30:00,2000.0,42.79,6.0312,0.038,0.011,-0.012,69.0,65.0,69.0,12.4,1504.7,65.5,-0.8,1.0,1992.32,13.28,0.039,73.9
09,2023-01-26T18:00:00,2000.0,42.79,6.0312,0.045,-0.002,-0.012,69.0,65.0,67.0,12.4,1504.7,71.9,-0.9,0.9,1992.316,13.28,0.045,92.5
09,2023-01-26T18:30:00,2000.0,42.79,6.0312,0.019,0.002,-0.006,73.0,67.0,71.0,12.4,1504.7,55.8,-0.6,1.0,1992.362,13.28,0.019,84.0
09,2023-01-26T19:00:00,2000.0,42.79,6.0312,0.027,-0.003,0.0,75.0,70.0,71.0,12.4,1504.7,79.3,-0.7,1.0,1992.37,13.28,0.027,96.3
09,2023-01-26T19:30:00,2000.0,42.79,6.0312,0.035,0.033,-0.004,74.0,69.0,73.0,12.4,1504.7,46.5,-0.7,1.0,1992.31,13.29,0.048,46.7
09,2023-01-26T20:00:00,2000.0,42.79,6.0312,0.045,0.0,-0.012,74.0,69.0,73.0,12.4,1504.7,54.9,-0.7,1.0,1992.37,13.28,0.045,90.0
09,2023-01-26T20:30:00,2000.0,42.79,6.0312,0.055,0.002,0.012,72.0,67.0,73.0,12.4,1504.7,48.9,-0.7,1.0,1992.339,13.28,0.055,87.9
09,2023-01-26T21:00:00,2000.0,42.79,6.0312,0.056,-0.01,0.012,70.0,69.0,72.0,12.4,1504.7,61.8,-0.8,0.9,1992.369,13.28,0.056,100.1
09,2023-01-26T21:30:00,2000.0,42.79,6.0312,0.042,0.001,0.007,74.0,69.0,70.0,12.4,1504.7,62.1,-0.7,1.0,1992.426,13.28,0.042,88.6
09,2023-01-26T22:00:00,2000.0,42.79,6.0312,0.049,-0.009,0.02,73.0,69.0,71.0,12.4,1504.7,56.7,-0.7,1.0,1992.382,13.28,0.049,100.4
09,2023-01-26T22:30:00,2000.0,42.79,6.0312,0.056,-0.027,0.005,72.0,69.0,76.0,12.4,1504.7,67.6,-0.8,1.0,1992.418,13.28,0.062,115.7
09,2023-01-26T23:00:00,2000.0,42.79,6.0312,0.055,-0.027,-0.013,74.0,72.0,76.0,12.4,1504.7,68.6,-0.8,1.0,1992.412,13.28,0.061,116.1
